Theta_e
302 302 303 304 305 305 306 311 317 319 321 321 321 322 323 323 323 323 323 323 322 322 321 321 321 320 320 320 319 318 318 316 313 313 313 314 314 314 313 313 313 314 314
302 303 305 305 306 307 307 308 310 316 320 321 320 322 322 323 323 321 322 322 322 322 321 320 320 320 319 319 318 317 317 315 314 313 312 312 312 311 309 308 308 308 309
302 303 304 306 307 308 310 311 313 316 317 320 320 320 321 320 319 320 322 320 321 320 320 319 318 319 318 317 316 315 314 313 312 308 303 300 300 299 299 299 299 300 300
302 302 303 306 307 310 312 313 315 317 318 319 318 319 319 319 318 319 319 319 318 317 317 316 316 316 314 312 308 304 301 300 300 299 298 298 298 298 298 299 299 299 300
301 302 302 304 305 306 310 313 314 315 316 317 317 316 316 316 317 317 317 316 315 315 314 312 308 304 301 300 299 298 298 297 297 297 297 297 297 297 297 297 297 298 299
299 301 301 302 303 304 306 307 312 312 313 313 313 313 313 313 313 312 311 309 306 302 300 300 299 298 297 297 296 296 296 296 296 296 296 296 295 295 295 295 295 295 295
295 297 299 300 301 302 304 306 308 307 308 308 307 306 303 301 300 299 299 299 299 298 298 297 296 296 296 296 295 296 296 295 295 295 295 294 294 293 294 294 294 294 294
295 294 296 297 297 298 301 304 303 303 306 304 307 299 297 297 297 297 297 296 296 296 295 295 295 295 295 295 295 295 295 295 295 294 294 294 293 293 293 293 293 293 294
294 295 294 294 295 295 294 296 297 296 296 295 295 296 297 295 295 295 295 295 295 295 295 295 295 295 295 295 295 294 294 294 294 294 293 293 293 293 292 293 292 292 292
293 293 294 293 293 295 295 295 295 295 294 293 293 294 294 293 294 294 294 294 294 294 294 294 294 294 294 294 294 294 294 294 293 293 293 293 292 292 291 291 290 290 289
293 293 293 293 293 293 292 292 293 293 293 293 293 293 293 293 293 293 293 293 294 293 294 294 294 293 293 293 293 293 293 292 292 292 292 292 292 291 291 291 290 289 288
293 292 292 292 292 292 292 292 292 292 292 292 292 292 292 293 293 293 293 293 293 293 293 293 293 292 292 292 292 292 292 292 292 292 292 291 291 290 290 290 290 289 288
292 292 292 292 292 292 292 292 292 292 292 292 292 292 292 292 292 293 293 292 292 292 292 292 292 291 291 292 292 292 292 292 292 292 291 290 289 289 289 289 289 289 287
292 292 292 292 292 292 292 292 292 292 292 292 292 292 292 292 292 292 292 292 292 292 291 291 291 292 292 292 291 291 291 291 291 290 290 289 289 289 289 289 289 288 288
292 292 292 292 292 292 292 292 292 292 292 292 292 292 292 292 292 292 292 292 291 291 291 291 291 291 291 291 290 290 290 290 290 290 289 289 289 288 288 287 288 287 287
293 292 292 292 292 292 292 292 292 292 293 292 292 292 292 292 292 291 291 291 291 291 291 291 291 291 290 290 290 290 289 289 289 289 288 288 288 287 287 287 287 286 287
293 293 292 292 292 292 292 292 292 292 292 292 292 291 291 291 291 291 291 291 291 291 290 290 290 290 290 289 289 289 289 288 288 288 288 288 287 287 286 286 286 286 286
295 294 293 293 292 292 292 292 292 292 292 292 292 291 290 290 290 290 290 290 290 290 290 290 289 289 289 288 288 288 288 288 287 288 287 287 287 286 286 286 286 285 285
295 295 294 294 293 293 292 292 292 292 292 291 291 291 290 290 290 289 289 289 289 289 289 289 289 288 288 288 288 287 287 287 287 287 287 287 287 286 286 285 285 285 285
294 294 294 294 294 293 293 293 292 292 292 291 291 291 290 290 290 289 289 288 288 288 288 288 288 288 287 287 287 287 287 287 287 286 286 287 287 286 286 286 286 286 285
294 294 294 294 294 294 293 293 292 292 292 291 291 291 290 290 290 289 289 289 288 288 287 288 287 287 287 287 287 286 286 286 286 286 286 286 286 286 286 286 286 286 286
294 294 294 294 294 294 294 293 292 292 291 291 291 290 290 289 289 289 288 288 288 287 287 287 287 287 287 286 286 286 286 286 286 286 285 286 286 286 285 285 284 284 284
294 293 293 294 294 294 294 293 293 292 291 291 290 290 290 289 288 288 288 287 287 287 286 286 286 286 286 286 286 285 285 285 285 285 285 284 284 284 283 282 282 281 281
295 294 293 293 293 293 293 293 293 292 291 291 290 290 289 289 289 288 287 287 287 286 286 286 285 285 285 285 285 285 285 285 285 285 285 284 283 283 282 281 280 280 280
297 295 294 293 292 293 293 293 293 293 292 291 290 290 289 289 289 288 288 287 286 286 286 286 285 285 284 284 284 284 285 285 284 284 283 282 282 282 281 281 280 280 280
299 297 295 293 292 292 292 292 292 293 293 292 291 290 289 289 289 288 288 288 287 286 286 286 285 285 284 284 283 283 283 283 283 283 282 281 281 281 281 280 280 279 279
Wind_Speed
7 7 8 9 13 18 19 20 24 21 18 16 15 15 14 14 14 12 13 13 13 14 19 19 21 21 22 23 23 23 25 26 29 32 31 32 33 34 33 33 36 37 38
9 8 7 6 5 7 12 16 16 22 20 14 16 16 17 15 15 16 15 14 15 16 17 17 20 17 21 19 19 18 19 19 23 26 28 27 27 29 30 32 33 34 36
11 10 7 3 0 4 7 9 11 13 18 15 15 16 16 11 15 14 15 15 14 14 15 13 13 14 14 15 17 18 18 19 21 24 26 25 24 25 26 26 27 28 29
11 11 8 5 3 5 6 9 9 13 16 13 12 10 11 11 12 14 13 10 8 8 8 7 8 10 12 14 14 14 13 13 14 17 19 22 25 25 27 32 31 31 33
12 10 10 8 5 4 8 8 11 10 10 11 10 10 9 8 10 9 7 5 4 5 4 5 6 7 6 7 7 8 10 13 15 17 20 21 24 27 29 30 33 35 33
11 10 10 7 7 7 7 7 10 9 6 7 7 6 7 7 7 4 3 3 3 3 3 4 5 4 6 6 9 11 12 14 15 17 20 23 24 28 30 32 34 38 44
14 14 13 9 9 12 13 10 4 9 7 5 6 5 7 11 10 9 8 7 7 7 6 7 6 6 6 8 9 11 12 14 17 19 21 23 26 28 32 33 33 33 35
12 13 12 14 12 15 15 15 11 9 7 9 8 10 12 14 11 10 10 10 9 9 8 8 9 9 9 10 11 11 13 15 16 18 21 22 23 25 27 29 30 32 32
10 10 10 12 14 12 15 16 15 11 13 17 17 17 15 14 13 12 12 11 11 12 12 11 11 11 10 11 12 13 13 14 16 17 17 18 20 22 25 26 28 32 36
9 11 11 11 12 13 14 17 17 13 15 16 15 15 15 16 14 13 13 12 12 12 12 13 13 12 13 14 16 15 14 15 15 14 15 17 19 21 24 26 27 29 31
8 10 10 10 11 12 13 15 15 14 15 15 15 15 15 15 15 14 13 12 12 12 12 12 13 14 17 18 17 17 18 18 18 18 18 19 21 22 22 23 23 24 26
6 8 9 10 11 12 11 11 11 12 11 12 13 14 14 14 14 13 13 12 12 11 12 13 15 16 16 17 17 18 18 19 18 17 18 19 20 22 22 21 21 20 22
5 6 7 7 8 9 9 9 10 10 10 11 11 11 12 12 12 12 11 11 11 11 12 14 15 14 14 15 17 17 15 16 16 18 19 20 22 22 22 22 21 20 20
5 5 6 6 7 8 8 8 8 8 8 8 9 9 9 9 9 10 11 10 11 12 12 12 12 12 13 12 12 13 15 17 18 19 19 20 20 21 21 22 23 23 23
8 7 6 6 6 6 7 7 7 7 7 7 6 6 6 8 10 10 10 9 10 11 10 8 8 8 9 10 12 14 15 17 17 18 18 18 19 20 21 23 24 25 27
11 10 9 9 9 9 9 8 7 6 6 7 6 6 6 6 7 8 9 8 9 9 6 5 5 6 8 10 12 13 15 16 17 18 19 19 21 21 22 23 24 25 26
14 13 12 12 11 10 10 11 11 10 10 9 8 6 6 7 8 7 7 6 6 5 3 3 3 6 8 10 12 13 15 16 17 18 18 19 20 21 21 23 24 25 26
19 16 16 15 15 15 14 14 14 13 12 12 11 10 10 10 8 6 4 5 4 4 4 3 2 4 6 8 10 11 13 14 15 16 17 17 19 20 20 22 24 25 25
25 23 20 19 19 18 18 18 17 16 16 15 15 15 14 11 8 7 6 7 7 6 5 5 3 3 5 6 8 9 11 12 12 14 14 15 17 18 20 21 22 22 22
30 28 26 24 24 23 23 22 21 20 20 19 18 18 16 15 13 11 10 9 8 7 7 7 5 3 3 4 5 7 7 9 9 10 12 13 14 15 17 18 19 21 22
34 33 31 30 30 28 27 26 25 25 24 23 22 21 20 19 18 16 14 13 11 10 9 9 7 6 5 4 3 4 4 5 5 6 7 9 10 12 13 15 16 18 19
36 36 36 35 34 33 31 30 29 28 28 27 26 24 23 22 21 20 18 16 15 14 13 12 11 9 8 7 6 5 4 3 2 1 3 4 6 7 8 10 11 12 13
40 38 39 39 38 36 35 34 33 32 30 30 29 28 27 24 24 22 21 19 19 18 17 16 15 14 13 12 11 10 9 7 6 4 4 4 4 4 6 8 9 9 9
43 42 41 41 41 40 38 37 36 34 33 32 32 31 30 28 26 24 24 23 22 21 21 20 19 19 18 17 16 15 14 13 11 10 10 9 9 10 12 11 10 10 9
46 45 44 42 42 42 41 40 38 37 36 35 34 33 32 30 29 28 26 26 25 25 24 23 23 22 22 21 20 19 19 17 17 16 16 16 15 15 14 14 15 14 13
49 47 46 43 43 42 42 41 39 39 38 36 35 34 33 32 31 30 29 28 27 27 26 26 25 25 25 24 24 23 23 22 22 22 21 21 21 20 19 19 18 18 17
Wind_Direction
354 338 322 293 253 243 245 241 237 243 249 260 253 239 230 224 233 241 267 279 275 282 280 282 277 273 276 277 285 289 291 292 286 294 296 299 303 305 304 303 303 301 301
21 18 2 331 287 249 239 237 235 230 232 241 244 239 238 234 237 248 261 264 266 269 276 266 263 270 278 282 287 289 294 297 296 300 302 306 307 304 303 301 297 299 298
29 22 14 22 42 205 217 230 221 217 222 239 251 252 248 254 242 256 258 272 264 261 261 262 264 276 277 287 291 296 298 301 302 306 312 320 324 320 321 317 318 313 307
30 39 34 49 87 165 168 191 187 195 199 215 216 231 247 249 256 251 264 260 259 259 256 269 280 281 293 296 301 307 313 317 318 321 327 335 335 335 332 331 328 327 325
27 38 52 51 71 112 168 178 170 176 200 194 199 223 225 217 234 230 230 230 235 265 279 278 283 295 312 329 341 349 345 342 344 342 341 340 341 339 340 339 333 331 329
37 40 48 60 78 97 113 119 152 130 133 152 165 166 173 171 170 171 206 223 215 184 134 100 67 40 22 359 5 8 360 354 350 350 352 349 348 346 344 343 342 340 336
52 59 55 58 89 93 95 101 128 104 106 118 119 104 116 118 121 125 112 110 106 96 90 90 79 64 50 35 23 13 6 6 4 2 0 355 350 348 346 344 343 339 335
63 64 63 63 84 102 108 111 106 99 93 122 121 124 113 102 109 103 103 109 112 111 104 94 81 64 57 45 33 22 20 13 9 5 3 358 352 350 350 348 344 341 342
77 82 84 78 83 92 98 104 109 108 122 125 127 125 133 120 115 115 112 109 106 97 88 79 74 67 58 54 40 29 25 21 14 8 4 1 360 357 353 351 353 353 352
80 82 85 92 101 106 108 107 113 122 113 108 112 112 123 116 107 103 102 99 93 87 82 72 66 62 55 47 40 29 25 24 20 14 12 12 11 7 4 2 359 359 359
80 86 84 84 91 100 102 97 96 105 106 112 115 117 115 116 115 111 105 103 94 85 79 74 67 58 47 42 36 29 25 21 19 17 16 19 17 13 8 5 1 358 358
90 92 96 94 89 83 84 95 100 102 111 117 119 120 120 118 117 117 111 101 94 90 84 74 64 55 47 39 33 30 24 19 17 16 17 20 19 18 17 14 13 14 11
141 120 112 109 111 114 118 116 120 123 123 121 122 123 124 123 117 113 109 107 104 94 81 69 60 56 48 40 33 28 26 26 23 22 24 22 20 20 20 22 22 23 23
192 165 151 141 138 134 131 130 132 134 139 139 137 135 134 133 133 133 132 125 105 88 76 68 62 54 47 41 38 35 33 30 30 28 28 26 23 21 22 25 27 29 28
213 205 195 178 166 157 153 158 159 160 157 156 158 159 162 165 161 147 130 117 104 90 79 76 68 63 62 53 46 43 41 36 33 34 31 29 28 25 26 27 29 30 30
226 223 217 210 200 190 185 185 180 184 191 189 180 183 190 183 169 154 139 122 106 93 86 84 89 84 73 64 56 50 46 42 37 38 35 31 33 32 29 28 29 31 30
232 230 229 229 226 221 215 209 204 201 208 213 211 199 202 208 198 177 148 130 124 120 128 141 115 88 77 67 58 52 48 44 40 39 39 37 40 38 35 33 32 33 32
236 236 236 235 235 232 229 225 221 217 218 217 216 216 218 221 206 192 186 170 176 181 190 193 155 108 92 77 67 59 54 51 47 45 43 43 45 45 43 42 39 37 36
236 236 236 237 237 237 235 233 231 228 227 228 227 225 225 227 225 220 220 221 215 210 217 218 201 147 104 90 82 74 67 61 56 54 50 48 49 49 50 48 47 44 42
237 237 237 237 236 236 236 236 235 234 235 235 237 238 238 235 236 234 235 234 236 239 237 233 220 191 154 126 104 93 83 78 68 61 58 53 51 50 50 48 47 47 45
240 240 239 239 239 240 240 240 238 237 236 235 235 236 237 239 240 238 238 240 242 243 246 251 247 232 210 187 165 143 125 107 90 74 64 56 51 49 46 43 41 40 40
243 242 241 242 242 242 242 242 242 241 240 239 239 239 239 239 240 240 241 242 241 241 240 239 239 239 238 235 230 223 213 191 169 104 54 45 44 41 34 27 24 27 30
245 245 245 244 245 245 244 244 244 244 244 244 244 243 244 245 246 247 247 246 246 245 243 242 240 239 238 236 235 235 234 235 241 258 278 295 315 327 333 334 338 344 352
244 246 246 246 246 247 246 246 247 247 247 246 246 247 248 248 248 248 250 250 249 249 249 248 248 247 245 244 242 242 244 245 249 257 266 274 281 293 301 304 308 310 313
241 243 245 245 247 247 248 246 246 247 247 248 248 248 249 249 250 250 250 252 252 252 253 252 252 253 253 252 251 252 253 255 258 262 266 269 271 276 282 291 295 296 297
241 242 245 246 247 249 249 249 246 246 247 248 249 250 250 251 251 252 253 253 254 255 256 256 255 255 255 256 256 257 258 261 262 265 268 272 275 275 277 278 280 282 283